Flag for Jordan Weather past 2 weeks in Zarqa, Jordan

Now
52 °F

Haze.


Feels Like: 50 °F
Forecast: 39 / 62 °F
Wind: 6 mph from Southwest

Location: Amman Airport

Current Time: Dec 28, 2014 at 6:36:39 AM

Latest Report: Dec 28, 2014 at 6:00 AM


Visibility: 3 mi

Pressure: 30.07 "Hg

Humidity: 67%

Dew point: 41 °F

Location of ZarqaLocation

Historic Weather in Zarqa — Graph

°F

Zarqa temperature yesterday

Maximum temperature yesterday: 61 °F (at 2:00 PM)
Minimum temperature yesterday: 43 °F (at 5:00 AM)
Average temperature yesterday: 51 °F

Past Weeks' High & Low Weather Summary

 TemperatureHumidityPressure
High61 °F (Dec 17, 3:00 PM)100% (Dec 15, 1:00 AM)30.33 "Hg (Dec 15, 1:00 AM)
Low41 °F (Dec 25, 8:00 AM)36% (Dec 27, 3:00 PM)30.04 "Hg (Dec 13, 5:00 AM)
Average51 °F72%30.16 "Hg
* Reported Dec 13 5:00 AM — Dec 28 5:00 AM, Zarqa, Weather by CustomWeather, © 2014

Note: Actual official high and low records may vary slightly from our data, if they occured in-between our weather recording intervals... More about our weather records

Advertising

Zarqa weather history for previous 24 hours

 ConditionsComfort  
Time TempWeatherWind HumidityBarometerVisibility
5:00 AM
Dec 28
52 °FHaze.6 mph62%30.07 "Hg3 mi
4:00 AM52 °FHaze.6 mph62%30.07 "Hg3 mi
3:00 AM52 °FHaze.6 mph62%30.07 "Hg3 mi
2:00 AM50 °FHaze.6 mph71%30.07 "Hg3 mi
1:00 AM50 °FHaze.No wind67%30.07 "Hg3 mi
12:00 AM50 °FHaze.No wind71%30.07 "Hg3 mi
11:00 PM
Dec 27
50 °FHaze.No wind71%30.07 "Hg3 mi
10:00 PM48 °FHaze.No wind76%30.07 "Hg3 mi
9:00 PM50 °FHaze.No wind76%30.07 "Hg3 mi
8:00 PM52 °FHaze.3 mph72%30.04 "Hg3 mi
7:00 PM52 °FHaze.3 mph72%30.04 "Hg3 mi
6:00 PM54 °FHaze.No wind63%30.04 "Hg3 mi
5:00 PM55 °FPassing clouds.No wind63%30.04 "Hg2 mi
4:00 PM61 °FHaze.3 mph36%30.04 "Hg3 mi
3:00 PM61 °FHaze.6 mph36%30.04 "Hg3 mi
2:00 PM61 °FHaze.No wind52%30.04 "Hg2 mi
1:00 PM59 °FHaze.3 mph59%30.04 "Hg2 mi
12:00 PM57 °FHaze.3 mph59%30.07 "Hg2 mi
11:00 AM55 °FHaze.6 mph63%30.07 "Hg2 mi
10:00 AM55 °FSleet. Haze.5 mph67%30.09 "Hg4 mi
9:00 AM52 °FClear.3 mph67%30.09 "Hg2 mi
8:00 AM43 °FFog.No wind93%30.07 "Hg2 mi
7:00 AM43 °FFog.No wind87%30.04 "Hg2 mi
6:00 AM43 °FFog.No wind93%30.04 "Hg2 mi
Weather by CustomWeather, © 2014

See weather overviewHow to use our weather pages